Regional Weather Roundup
Issued by NWS

Home | Current Version | Previous Version | Text Only | Print | Product List | Glossary Off
Versions: 1 2 3 4 5 6 7 8 9 10 11 12 13 14 15 16 17 18 19 20 21 22 23 24 25 26 27 28 29 30 31 32 33 34 35 36 37 38 39 40 41 42 43 44 45 46 47 48 49 50

000
ASUS45 KCYS 292110
RWRWY

WYOMING REGIONAL WEATHER ROUNDUP
NATIONAL WEATHER SERVICE CHEYENNE WY
300 PM MDT FRI JUL 29 2016

NOTE:  "FAIR" INDICATES FEW OR NO CLOUDS BELOW 12,000 FEET
WITH NO SIGNIFICANT WEATHER AND/OR OBSTRUCTIONS TO VISIBILITY.

WYZ001-292200-
YELLOWSTONE NATIONAL PARK

CITY           SKY/WX    TMP DP  RH WIND       PRES   REMARKS
LK YELLOWSTONE   N/A     70  40  33 CALM      30.28F
W YELLOWSTONE  NOT AVBL

$$
WYZ002>013-054>058-071-098>099-292200-
NORTHERN WYOMING

CITY           SKY/WX    TMP DP  RH WIND       PRES   REMARKS
JACKSON        SUNNY     84  34  16 W7        30.16F
CODY           FAIR      79  48  34 N12       30.09F
GREYBULL       FAIR      91  39  16 NW5       29.98F
WORLAND        FAIR      91  45  20 NE10      29.99F
SHERIDAN       FAIR      86  45  23 VRB3      30.05F
BUFFALO        PTSUNNY   81  45  28 NE8       30.12F
GILLETTE       FAIR      83  45  26 VRB6      30.07F
HULETT         FAIR      81  55  41 NE12      30.09F
NEWCASTLE      FAIR      81  45  28 SW6       30.08F

$$
WYZ014>020-022>026-101>103-292200-
CENTRAL WYOMING

CITY           SKY/WX    TMP DP  RH WIND       PRES   REMARKS
BIG PINEY      FAIR      84  38  19 VRB6      30.20F
PINEDALE       FAIR      81  32  17 NW9       30.21F
DUBOIS         FAIR      81  27  13 N15       30.18F
LANDER         FAIR      87  49  26 VRB5      30.07F
RIVERTON       FAIR      86  42  21 SE6       30.06F
CASPER         FAIR      86  42  21 VRB7      30.07F
DOUGLAS        FAIR      85  46  25 E15       30.07F

$$
WYZ021-027>030-104>119-292200-
SOUTHERN WYOMING

CITY           SKY/WX    TMP DP  RH WIND       PRES   REMARKS
EVANSTON       FAIR      86  29  12 NW16G33   30.24F
KEMMERER         N/A    N/A N/A N/A W25G37    30.23F
FORT BRIDGER   FAIR      90  28  10 W22G36    30.24F
ROCK SPRINGS   FAIR      88  30  12 NW17G32   30.17F
DIXON          FAIR      87  32  14 W5G21     30.21F
RAWLINS        FAIR      87  26  11 VRB6G25   30.18F
SARATOGA       FAIR      86  30  13 W10G18    30.21F
LARAMIE        FAIR      81  33  17 S7        30.21F
CHEYENNE       FAIR      74  53  48 SE17      30.16F
TORRINGTON     LGT RAIN  80  56  43 SE5       30.04F
PINE BLUFFS    FAIR      75  54  46 SE13      30.15F

$$



USA.gov is the U.S. government's official web portal to all federal, state and local government web resources and services.